Probability
0 0 0 0 0 0 0 0 0 0 0 0 0 0 0 0 1 2 3 3 3 4 5 4 2 1 0 0 0 0 0 0 0 0 0 0 0 0 0 0 0 0 0 0
0 0 0 0 0 0 0 0 0 0 0 0 0 0 0 0 1 2 2 2 2 3 4 5 4 3 2 1 0 0 0 0 0 0 0 0 0 0 0 0 0 0 0 0
0 0 0 0 0 0 0 0 0 0 0 0 0 0 0 1 2 3 2 1 1 2 4 5 5 5 4 3 1 1 0 0 0 0 0 0 0 0 0 0 0 0 0 0
0 0 0 0 0 0 0 0 0 0 0 0 0 0 1 2 3 3 3 1 1 2 3 4 4 4 5 4 3 2 1 1 1 0 0 0 0 1 1 1 0 0 0 0
1 0 0 0 0 0 0 0 0 0 0 0 0 0 1 2 2 2 2 2 2 2 3 2 2 4 5 5 4 3 3 2 2 1 1 1 1 2 2 2 1 0 0 0
2 1 0 0 0 0 0 0 0 0 0 1 1 1 1 2 2 2 2 3 3 3 2 1 2 4 5 5 5 4 3 3 3 3 2 2 3 3 3 2 1 0 0 0
2 1 0 0 0 0 0 0 0 0 1 2 2 1 1 1 2 3 4 5 6 5 3 1 2 4 5 5 4 3 3 3 3 3 3 3 3 3 2 1 1 0 0 0
1 1 0 0 0 0 0 0 0 0 1 1 1 1 2 2 3 4 6 7 7 6 4 2 2 4 3 3 3 2 2 2 2 2 2 2 2 2 1 0 0 0 0 0
1 1 1 0 0 1 1 0 0 0 1 1 0 1 2 3 3 4 5 5 5 4 3 2 2 3 2 1 1 1 1 1 1 1 1 1 1 1 0 0 0 0 0 0
2 2 2 1 0 1 1 0 0 1 1 1 1 2 2 3 3 3 3 2 1 1 1 1 1 2 1 1 0 0 0 0 0 0 0 0 0 0 0 0 0 0 0 0
3 3 2 1 0 1 1 0 0 1 2 3 2 2 2 2 3 3 2 1 0 0 0 0 0 1 1 1 1 1 1 1 1 0 0 0 0 0 0 0 0 0 0 0
2 1 1 0 0 0 0 0 0 1 3 3 2 1 1 1 1 2 1 0 0 0 0 0 0 0 0 1 2 2 2 2 2 1 1 1 1 1 1 0 0 0 0 0
1 0 0 0 0 0 0 1 1 2 2 3 2 0 0 0 0 0 0 0 0 0 0 0 0 0 0 0 1 2 3 3 3 3 2 2 2 2 2 1 1 1 0 0
0 0 0 0 0 0 1 1 2 1 1 2 1 0 0 0 0 0 0 0 0 0 0 0 0 0 0 0 0 1 2 3 3 3 3 3 3 3 3 3 2 2 1 0
0 0 0 0 1 1 1 2 2 1 0 1 1 0 0 0 0 0 0 0 0 0 0 0 0 0 0 0 0 0 1 2 2 3 3 3 3 3 3 3 3 3 2 1
0 0 0 0 1 2 2 2 2 1 0 0 0 0 0 0 0 0 0 0 0 0 0 0 0 0 0 0 0 0 0 1 1 1 2 3 3 3 3 3 3 3 2 1
0 0 0 0 0 1 2 2 2 1 0 0 0 0 0 0 0 0 0 0 0 0 0 0 0 0 0 0 0 0 0 0 0 0 1 3 3 3 3 3 3 3 2 1
0 0 0 0 0 0 1 1 1 1 0 0 0 0 0 0 0 0 0 0 0 0 0 0 0 0 0 0 0 0 0 0 0 0 1 2 2 2 2 2 2 1 1 0
0 0 0 0 0 0 0 0 0 0 0 0 0 0 0 0 0 0 0 0 0 0 0 0 0 0 0 0 0 0 0 0 0 0 0 1 1 1 1 1 1 0 0 0
0 0 0 0 0 0 0 0 0 0 0 0 0 0 0 0 0 0 0 0 0 0 0 0 0 0 0 0 0 0 0 0 0 0 0 0 0 0 0 0 0 0 0 0
0 0 0 0 0 0 0 0 0 0 0 0 0 0 0 0 0 0 0 0 0 0 0 0 0 0 0 0 0 0 0 0 0 0 0 0 0 0 0 0 0 0 0 0
0 0 0 0 0 0 0 0 0 0 0 0 0 0 0 0 0 0 0 0 0 0 0 0 0 0 0 0 0 0 0 0 0 0 0 0 0 0 0 0 0 0 0 0
0 0 0 0 0 0 0 0 0 0 0 0 0 0 0 0 0 0 0 0 0 0 0 0 0 0 0 0 0 0 0 0 0 0 0 0 0 0 0 0 0 0 0 0
0 0 0 0 0 0 0 0 0 0 0 0 0 0 0 0 0 0 0 0 0 0 0 0 0 0 0 0 0 0 0 0 0 0 0 0 0 0 0 0 0 0 0 0
0 0 0 0 0 0 0 0 0 0 0 0 0 0 0 0 0 0 0 0 0 0 0 0 0 0 0 0 0 0 0 0 0 0 0 0 0 0 0 0 0 0 0 0
0 0 0 0 0 0 0 0 0 0 0 0 0 0 0 0 0 0 0 0 0 0 0 0 0 0 0 0 0 0 0 0 0 0 0 0 0 0 0 0 0 0 0 0
0 0 0 0 0 0 0 0 0 0 0 0 0 0 0 0 0 0 0 0 0 0 0 0 0 0 0 0 0 0 0 0 0 0 0 0 0 0 0 0 0 0 0 0
Wind_Speed
4 4 1 2 3 2 2 6 7 6 7 9 9 8 7 7 6 5 5 5 6 5 4 4 3 3 3 3 3 3 3 3 3 3 3 3 3 3 3 2 3 3 2 2
1 2 2 2 2 1 1 2 4 5 3 5 6 5 5 6 7 6 6 6 7 6 5 4 4 4 3 3 3 3 3 3 3 3 3 3 3 3 3 3 3 2 2 2
2 2 3 3 2 2 3 2 6 4 5 5 5 5 6 6 6 6 7 6 7 7 6 5 5 5 4 4 3 3 3 3 3 3 3 3 4 3 3 4 3 2 2 2
1 2 2 5 1 5 6 4 3 3 4 6 6 5 3 3 5 5 6 6 6 5 5 4 4 3 3 3 4 4 3 3 3 3 4 3 3 4 4 3 3 3 3 3
3 2 3 3 1 2 5 3 3 5 4 3 4 5 3 0 3 5 5 6 6 5 5 4 4 4 3 3 3 3 3 3 3 3 4 3 4 4 4 3 3 3 3 3
4 3 4 5 3 1 8 2 1 5 4 3 4 3 3 2 2 3 2 3 3 3 3 4 4 3 3 3 3 3 4 4 3 3 4 4 5 4 3 3 3 3 3 3
4 3 4 3 2 3 4 6 3 4 5 4 4 5 5 2 2 3 3 3 4 3 3 4 4 4 3 3 4 4 3 2 2 2 3 4 4 3 2 2 2 2 2 2
3 2 4 3 1 3 5 4 4 4 4 4 4 3 3 3 3 3 3 3 3 3 2 2 2 4 3 4 4 3 2 2 2 2 3 2 2 2 2 2 1 2 2 2
4 5 4 2 2 3 5 5 3 4 3 4 4 3 3 3 3 2 3 3 2 3 2 0 1 3 3 4 2 2 2 1 1 2 1 1 2 2 1 1 2 2 2 2
2 0 1 2 2 3 4 4 3 4 4 4 4 4 3 3 3 3 2 2 2 3 2 1 1 1 2 2 1 2 2 2 1 1 1 1 1 2 2 2 2 2 3 3
2 1 2 2 1 4 4 5 4 4 4 4 4 3 3 2 2 3 2 2 2 3 3 2 2 1 1 1 1 2 2 2 2 2 2 2 1 2 2 3 4 4 4 3
4 5 4 4 2 5 6 5 5 5 4 4 4 3 3 2 2 2 2 2 2 2 2 1 1 1 1 1 2 2 2 2 2 2 2 2 1 2 2 3 4 5 6 5
3 1 3 3 4 5 5 4 4 5 4 4 3 2 2 2 2 2 2 2 2 2 2 1 1 1 1 1 1 2 2 3 2 2 2 2 2 2 2 3 3 3 4 5
4 4 3 2 3 4 5 5 5 5 4 4 3 3 3 2 2 2 1 2 2 2 1 1 1 1 2 1 1 2 2 3 3 3 3 3 3 3 3 2 2 2 3 4
3 3 3 2 4 5 5 6 7 5 5 4 3 3 3 2 2 1 1 1 1 1 1 1 1 2 2 1 1 2 2 2 2 3 3 3 3 2 2 2 2 2 1 2
4 5 5 5 5 6 6 6 6 4 3 3 3 2 1 1 1 0 0 1 2 1 2 2 2 3 2 1 1 1 2 3 2 2 2 2 2 2 2 2 2 2 2 2
6 5 3 4 4 4 4 4 4 3 2 2 1 1 2 2 1 1 0 1 2 2 2 2 2 2 1 0 1 1 2 2 3 2 2 2 2 2 2 2 2 2 3 3
4 3 3 3 3 3 3 3 3 2 1 1 1 1 1 1 1 1 2 1 1 1 2 2 2 2 2 1 1 1 2 2 2 2 2 2 3 2 2 2 3 2 2 1
5 4 4 4 3 3 2 2 2 1 1 1 1 1 1 1 2 1 1 0 0 1 3 2 2 1 2 2 2 1 2 2 2 2 1 2 1 1 1 2 2 1 1 1
5 5 6 5 5 4 3 2 2 1 1 1 1 1 1 2 1 1 0 1 3 4 3 2 2 2 2 2 2 1 2 2 2 2 1 1 1 1 1 1 1 1 1 1
4 5 5 4 3 3 2 2 2 2 2 2 1 1 2 2 1 1 0 2 4 3 2 2 1 2 2 2 2 2 2 2 2 2 1 1 1 1 1 1 1 1 1 1
3 3 3 3 3 3 2 2 2 2 2 2 2 2 2 2 3 2 2 3 4 3 2 1 1 2 2 2 1 1 2 2 2 1 1 1 1 2 2 2 2 1 1 2
2 2 2 2 2 2 3 3 2 2 2 2 2 2 2 3 3 2 3 4 3 3 2 2 2 2 2 1 1 1 1 1 2 1 1 1 1 2 2 2 2 2 2 2
2 3 3 2 2 3 4 5 4 3 2 2 2 2 2 2 2 2 2 3 3 3 2 2 3 3 2 1 1 1 1 1 2 1 1 1 1 1 1 2 1 1 1 1
2 3 3 3 2 2 3 4 4 4 3 2 3 3 2 1 1 2 2 1 2 1 1 2 3 4 2 1 1 1 1 1 1 1 1 1 1 1 1 2 2 1 1 1
2 2 3 3 2 2 2 2 2 3 2 2 3 3 3 2 2 2 1 1 1 1 1 1 1 1 1 1 1 1 1 1 0 1 1 1 1 0 0 0 1 1 1 1
3 2 2 2 3 2 2 2 2 2 2 2 2 3 3 2 2 2 1 1 1 1 1 1 1 0 1 1 1 1 1 1 1 0 0 1 0 0 0 0 1 1 1 1
Wind_Direction
215 241 240 273 292 297 180 185 184 199 181 197 191 182 180 171 158 152 159 161 161 170 178 178 171 174 185 187 184 181 183 199 217 219 219 221 219 220 222 220 221 222 214 222
277 279 308 293 290 260 186 155 152 144 193 202 176 155 157 166 165 167 174 180 178 178 175 177 179 181 187 191 189 179 188 212 218 219 223 227 225 222 221 231 237 224 212 209
247 289 8 308 248 144 109 115 146 174 206 158 140 153 171 171 168 174 179 181 183 184 185 190 191 184 187 196 186 183 199 214 215 214 221 230 230 224 223 227 226 222 220 205
165 48 246 248 211 119 100 60 88 115 136 147 159 160 151 160 167 174 175 181 182 186 191 195 193 187 183 180 178 188 200 217 216 214 221 234 228 227 229 224 213 213 218 215
134 159 260 292 311 127 120 51 50 105 119 128 126 83 23 305 157 175 181 182 183 185 182 182 184 183 170 173 177 189 205 219 221 214 219 229 231 237 232 219 223 221 217 211
135 157 223 242 276 125 101 77 344 111 125 129 105 111 248 247 140 132 148 163 157 161 163 176 192 170 157 175 179 203 214 222 219 212 214 224 230 233 227 216 224 224 226 220
166 187 239 247 264 83 127 212 205 147 144 141 153 186 212 184 129 133 132 136 129 141 174 198 188 161 167 185 206 216 210 203 201 212 222 224 222 222 219 217 216 223 228 239
150 169 238 278 113 152 192 172 159 148 147 147 165 161 145 139 140 127 116 123 134 140 176 216 178 161 179 211 222 208 190 188 211 227 235 225 212 227 216 201 205 231 237 257
173 200 223 221 167 165 144 140 153 145 152 159 157 147 136 137 136 125 132 144 149 150 156 201 172 163 196 228 213 173 165 208 242 246 255 243 210 222 221 209 210 228 225 236
78 72 111 99 103 112 124 138 158 142 135 136 141 139 132 136 138 128 137 152 142 138 145 202 227 186 205 229 179 138 167 222 244 238 266 291 246 215 208 218 222 224 223 229
91 200 54 16 88 111 105 99 96 95 99 109 120 123 135 138 150 148 153 172 155 156 175 211 230 228 225 199 149 166 187 209 232 230 233 258 264 238 222 225 215 211 219 211
210 216 172 202 155 110 106 107 109 98 83 81 103 121 121 138 152 149 156 150 152 163 181 211 202 244 276 229 173 172 206 231 233 231 238 235 233 290 288 252 248 228 224 210
169 178 149 153 107 97 105 111 106 99 99 89 76 97 114 129 140 141 149 149 180 191 190 181 169 253 277 268 163 185 213 236 243 234 235 231 221 220 273 307 307 276 245 227
98 96 92 95 113 101 98 97 94 86 84 97 96 88 89 88 89 108 162 201 200 188 170 157 149 263 272 263 211 216 222 234 234 235 235 229 225 222 223 233 271 287 274 244
56 101 127 122 97 89 87 89 84 70 59 60 74 85 91 98 124 175 230 232 140 131 147 151 183 271 286 264 209 233 238 248 243 240 237 230 229 225 228 234 239 247 277 295
45 58 71 81 95 96 93 94 93 84 74 63 58 56 54 101 148 187 246 142 134 176 215 207 235 260 275 290 267 257 261 267 257 244 243 238 237 233 229 228 235 234 239 251
73 57 65 70 78 88 92 101 109 106 90 81 85 80 68 74 61 22 300 223 193 206 214 225 256 276 277 252 263 277 287 292 277 272 255 243 233 224 218 214 221 228 235 229
82 83 95 94 89 83 74 71 83 88 100 117 88 50 77 143 198 237 248 254 256 280 273 262 265 292 297 284 262 271 271 271 269 264 257 243 232 222 214 213 219 225 251 260
48 46 49 54 60 81 78 65 61 63 58 47 21 280 237 237 228 223 203 108 162 267 274 266 263 260 293 303 296 280 275 282 284 273 267 262 233 223 217 214 219 229 234 242
34 39 41 37 35 43 43 34 33 20 358 4 356 340 318 293 269 215 182 232 232 234 246 252 243 250 271 291 315 293 287 282 274 270 268 259 242 239 240 232 230 238 235 224
37 39 41 33 16 13 28 20 19 342 316 326 319 279 280 285 279 218 196 270 270 255 241 232 217 235 254 285 298 301 301 301 287 266 253 253 252 249 237 229 234 232 220 207
29 34 19 5 2 350 343 346 338 323 321 327 326 320 314 300 293 284 254 240 254 249 230 232 228 238 262 281 269 284 299 309 306 291 268 244 220 220 228 222 221 225 213 209
348 351 353 358 353 334 335 341 333 321 304 297 296 286 269 265 258 244 276 273 258 245 231 237 252 258 261 268 276 280 295 304 298 291 273 261 234 220 226 229 230 218 208 217
337 333 330 334 349 360 340 325 324 318 301 295 290 280 272 290 305 280 257 267 255 248 240 248 251 261 263 267 279 284 287 290 293 302 301 286 271 256 238 225 223 229 229 235
333 328 330 340 343 319 304 313 328 333 333 327 315 308 296 243 246 278 286 268 253 245 266 265 256 260 258 261 259 264 273 277 297 320 331 321 306 282 255 238 219 210 208 204
321 308 294 284 277 280 301 324 326 321 326 332 329 325 323 322 315 309 316 300 276 275 286 300 297 280 264 262 254 248 246 257 324 320 317 323 342 30 54 243 206 196 190 181
337 330 327 333 328 323 328 333 321 317 316 320 335 328 331 334 340 338 342 340 330 314 317 329 334 351 2 10 1 341 324 310 306 283 308 333 344 11 121 284 270 256 219 177